Theta_e
331 331 331 331 331 331 331 331 331 330 329 327 325 322 320 317 315 313 308 301 298 298 297 297 297 297 297 296 296 296 296 296 296 296 296 296 296 296 296 296 296 296 296 295 295 295 294 294 294 293 293 293 293 293 293 293 293 292 292 292 292 292 291 291 292 292 292 293 292 292 292 292 293 293 293 293 293 293 293 294 294 294 295 295 296
333 332 332 331 331 332 332 331 330 329 328 326 323 321 318 316 314 310 304 299 297 297 297 297 297 296 296 296 296 296 296 296 296 296 296 296 296 296 296 296 296 296 295 295 295 295 294 294 294 293 293 293 293 293 293 293 293 292 292 292 292 292 291 291 291 291 292 292 292 292 292 292 292 292 293 293 293 293 293 294 294 294 294 295 296
332 332 331 330 331 331 331 330 329 328 326 324 322 320 317 315 312 307 302 298 297 297 296 296 296 296 296 296 296 296 296 296 296 296 296 296 296 296 296 296 296 295 295 295 295 295 294 294 294 293 293 293 293 293 292 292 292 292 292 292 292 292 292 291 291 291 291 291 291 291 291 292 292 292 292 293 293 293 293 293 294 294 295 295 296
330 330 330 330 331 330 330 329 328 327 324 322 321 319 316 314 310 304 300 298 297 296 296 296 296 296 295 295 295 295 296 296 295 296 296 296 295 296 296 296 296 295 295 295 295 295 294 294 294 293 293 293 293 292 292 292 292 292 292 292 292 292 292 292 291 291 291 291 291 291 291 292 292 292 292 293 293 293 293 294 294 294 295 296 296
328 328 329 330 330 329 328 328 326 324 323 321 319 317 314 313 308 302 299 298 296 296 296 296 296 295 295 295 295 295 295 295 295 296 296 296 296 296 296 296 295 295 295 295 295 294 294 294 293 293 293 293 293 293 292 292 292 292 292 292 292 292 292 292 291 291 291 291 291 291 291 291 291 292 292 293 293 293 294 294 294 294 295 296 296
328 329 329 329 328 328 327 326 324 322 321 319 318 315 313 311 306 301 299 298 296 296 296 295 296 295 295 295 295 295 295 295 295 295 296 296 295 296 296 295 295 295 295 294 294 294 293 293 293 293 293 293 293 293 292 292 292 291 291 291 292 292 292 292 291 291 291 291 291 291 291 291 292 292 292 293 293 294 294 295 295 295 295 296 296
328 329 329 328 328 327 325 324 322 321 319 317 316 314 312 310 305 300 298 298 297 296 295 295 295 295 295 295 295 295 295 295 295 295 295 295 295 296 295 295 294 294 294 294 294 293 293 293 293 293 293 292 293 293 292 292 291 291 291 291 291 291 291 291 291 291 291 291 291 291 291 291 292 293 293 293 294 294 295 295 295 295 296 296 296
328 329 328 328 327 326 324 322 321 319 317 316 315 313 311 309 304 299 298 298 297 295 295 295 295 295 295 295 295 295 295 295 295 295 295 295 295 295 295 294 294 294 294 294 293 293 293 293 293 293 293 292 292 292 292 291 291 291 291 291 291 291 291 291 291 291 291 291 291 290 291 291 292 293 294 294 294 294 294 294 295 295 296 295 295
328 328 328 328 327 325 323 321 319 317 316 315 314 311 310 308 303 300 299 298 296 295 295 295 295 295 295 295 295 295 294 294 295 295 295 295 295 295 295 295 294 294 294 293 293 293 293 293 293 293 293 292 292 292 292 291 291 291 291 291 291 291 291 291 291 291 291 291 290 290 291 292 293 293 294 294 294 294 294 294 295 295 295 295 295
327 328 328 327 326 324 322 319 317 316 315 314 312 310 309 307 303 301 300 298 296 295 295 295 295 295 295 295 295 294 294 294 295 295 295 295 295 295 295 295 294 294 294 294 293 293 293 293 293 293 293 292 292 292 291 291 291 291 290 290 290 291 291 291 291 291 291 291 290 290 291 293 293 293 294 294 294 294 293 294 294 295 295 295 295
327 328 328 327 326 323 321 318 316 315 314 312 311 309 308 306 304 302 300 298 296 295 294 295 295 295 295 295 294 294 294 294 295 294 294 295 295 294 294 294 294 294 294 293 293 293 293 293 293 293 293 292 292 292 291 291 291 291 291 291 290 290 290 290 291 291 291 291 290 290 291 292 293 293 293 293 293 293 293 293 294 294 295 295 295
326 327 328 327 325 323 320 317 315 314 313 311 310 308 306 304 303 302 300 297 296 295 295 295 295 295 295 294 294 294 294 294 294 294 294 294 294 294 294 293 293 293 293 293 293 293 293 293 293 293 293 293 292 292 292 292 292 291 291 291 290 290 290 290 290 291 291 291 290 290 291 292 292 292 293 293 293 293 293 293 294 294 295 295 295
326 326 327 326 325 324 320 317 315 314 312 311 310 307 305 302 301 300 298 296 295 295 295 295 295 295 295 294 294 294 294 294 294 294 294 294 294 293 293 293 293 293 293 293 293 293 293 293 293 293 292 292 292 292 292 292 292 292 292 291 291 290 290 290 290 290 291 291 291 290 290 291 292 292 293 293 293 293 293 293 294 294 295 295 295
325 326 327 326 325 324 320 317 316 314 313 312 310 308 306 302 299 299 298 296 295 295 295 295 294 294 294 294 294 293 294 294 294 294 293 293 293 293 293 293 293 293 293 293 293 293 293 293 293 292 292 292 292 292 292 292 293 293 292 292 291 291 291 291 290 290 290 291 291 290 290 291 291 292 293 293 293 293 293 293 294 294 295 295 294
325 326 327 326 324 322 320 317 315 314 313 311 310 309 306 301 300 301 299 296 295 294 294 294 294 294 294 294 293 293 293 293 293 293 293 293 293 293 293 293 292 292 292 293 293 293 293 293 293 292 292 292 292 292 292 293 293 293 293 292 292 291 291 291 290 290 290 290 291 290 290 290 291 292 292 293 293 293 292 293 294 294 294 294 294
325 326 325 324 323 322 319 315 314 313 312 311 310 308 305 302 302 301 298 296 295 294 294 294 294 294 294 293 293 293 293 293 293 293 293 293 293 293 293 292 292 292 292 292 293 293 293 293 292 292 292 292 292 292 292 293 293 293 293 292 292 292 292 292 291 291 290 290 291 291 290 290 291 291 292 292 292 292 292 293 293 294 294 294 294
326 326 324 323 323 321 317 314 313 313 312 311 310 308 306 304 303 300 297 295 294 294 294 294 293 293 293 293 293 293 293 293 293 293 293 293 293 293 293 292 292 292 293 293 293 293 293 292 292 292 292 292 292 292 292 293 293 293 293 293 293 293 293 293 292 292 291 291 291 291 291 290 291 291 292 292 292 292 292 292 293 294 294 294 293
327 326 324 323 322 320 318 315 314 313 312 311 309 308 306 304 301 299 297 295 294 294 294 293 293 293 293 293 294 294 294 294 294 294 294 294 293 293 293 293 293 293 293 293 293 293 293 292 292 292 292 292 292 292 292 293 293 293 293 293 293 293 292 292 292 292 292 291 291 291 291 291 291 291 292 292 292 292 292 292 293 294 294 294 293
326 326 324 322 320 319 317 315 314 313 312 311 309 308 306 303 300 298 297 295 293 293 293 293 293 293 293 293 294 294 294 294 294 294 294 294 294 293 293 293 293 293 293 293 293 293 292 292 292 292 292 292 292 292 293 293 293 293 293 293 293 292 292 292 292 292 292 292 291 291 291 291 291 291 292 292 292 292 292 292 293 294 293 293 293
326 324 322 320 320 318 316 315 314 313 312 311 309 307 305 303 300 298 297 295 293 293 293 293 293 293 293 293 293 293 293 294 294 294 294 294 294 293 293 293 293 293 293 293 293 292 292 292 293 292 293 293 293 293 293 293 293 293 292 292 292 292 292 292 292 292 292 292 291 291 291 291 291 291 292 292 292 292 292 292 293 294 294 294 294
324 323 320 320 319 318 316 315 314 313 311 310 309 306 304 302 301 299 297 295 293 293 293 292 292 292 293 293 293 293 293 294 293 294 294 294 294 293 293 293 293 293 293 293 293 293 293 293 293 293 293 293 293 293 293 293 293 292 292 292 292 292 292 292 292 292 292 292 292 291 290 290 290 291 291 292 292 292 292 291 292 294 295 294 294
323 322 320 320 319 317 316 314 313 311 311 310 308 306 304 303 301 300 298 295 293 292 292 292 292 292 292 293 293 293 293 293 293 294 294 294 293 293 294 294 294 294 293 293 293 293 293 293 293 293 293 293 293 293 293 293 293 293 292 292 292 292 292 292 292 293 293 292 292 291 290 290 290 290 291 292 292 292 292 291 292 293 295 295 294
323 322 320 319 317 316 315 313 312 311 310 309 307 306 305 303 302 301 299 296 293 292 292 292 292 292 293 293 293 293 293 293 293 294 294 294 294 294 294 294 294 294 293 293 293 293 293 293 293 293 293 293 294 294 294 293 293 293 293 292 293 293 293 293 293 293 293 293 292 292 291 290 290 290 291 292 292 292 292 292 291 292 295 296 296
323 321 320 318 316 315 314 313 311 311 310 308 307 305 304 303 302 301 300 299 295 293 292 292 292 292 293 293 293 293 293 293 293 294 294 294 294 294 294 294 294 293 293 293 293 293 293 293 293 294 294 294 294 294 294 294 294 294 293 293 293 293 293 293 293 293 293 292 292 292 291 290 290 290 290 291 292 292 292 292 291 292 294 295 296
322 320 319 318 317 315 314 312 311 310 309 308 306 305 304 303 302 302 302 301 298 295 292 292 292 292 293 293 294 294 294 294 293 293 294 294 294 294 294 294 294 294 294 294 294 294 294 294 294 294 294 294 294 295 295 295 295 294 293 293 293 293 293 293 293 292 292 292 292 292 291 290 290 290 290 291 292 292 292 292 292 291 292 294 296
321 320 318 317 316 314 313 312 311 310 309 307 306 305 304 303 302 302 302 301 299 297 294 292 292 292 293 294 295 295 294 294 294 293 293 293 294 294 294 294 294 294 294 294 294 294 294 294 294 295 295 295 295 295 295 296 295 294 294 293 293 293 293 293 293 292 292 292 292 292 291 291 290 290 290 290 291 292 292 292 292 291 291 293 295
320 319 318 317 315 314 313 312 311 310 308 307 306 305 304 303 302 302 301 300 300 299 296 294 292 292 293 295 296 295 295 294 294 293 293 293 293 294 294 294 294 294 294 294 294 294 295 295 295 295 295 296 296 296 296 296 295 294 293 293 294 294 294 294 294 293 293 292 292 292 292 292 291 290 290 290 290 291 292 292 292 292 291 292 293
320 319 318 317 315 314 313 312 311 309 308 307 307 305 305 304 303 302 300 298 298 297 296 294 293 292 293 295 296 296 295 295 294 294 293 293 294 293 293 293 293 293 294 294 294 295 295 295 295 295 296 296 296 296 297 296 295 294 294 295 295 296 296 296 296 295 294 293 292 292 292 292 291 290 290 290 290 291 292 292 292 292 292 291 292
319 319 318 317 315 314 313 312 311 308 307 307 306 305 304 303 302 301 298 297 296 295 294 294 294 293 293 295 297 297 296 295 295 295 294 294 294 293 293 293 293 293 293 294 294 294 295 295 295 296 296 296 296 296 297 296 295 294 295 296 296 296 296 296 296 296 295 294 293 292 292 293 292 291 290 290 289 290 291 292 292 292 292 292 291
318 318 317 316 315 314 313 312 310 307 306 305 305 304 303 302 301 299 297 297 296 295 294 294 293 293 294 296 297 297 297 297 297 296 295 294 294 293 293 293 293 294 294 294 294 294 295 295 295 296 296 296 297 297 297 296 295 295 295 296 296 296 296 296 296 296 296 295 295 294 293 292 292 291 290 290 289 289 290 292 292 292 292 292 291
318 317 316 316 315 314 313 311 309 306 305 304 303 303 303 302 301 300 299 297 296 294 294 294 293 293 295 297 298 298 298 298 298 297 295 294 293 293 293 293 293 293 294 294 294 294 295 295 296 296 296 297 297 297 297 297 296 295 295 296 296 296 296 296 296 296 296 296 296 295 294 293 292 292 291 290 290 290 289 291 292 292 292 292 292
318 318 317 316 315 314 312 311 309 306 305 304 303 302 302 301 301 300 300 298 295 294 293 293 293 294 297 298 299 298 298 298 298 298 297 296 295 293 293 293 293 293 294 294 294 295 295 296 296 296 296 297 297 297 297 297 296 296 295 295 296 296 296 296 296 296 296 296 296 296 296 295 293 292 292 291 291 290 289 289 291 292 292 292 292
318 318 317 315 314 313 312 310 308 306 305 303 302 302 301 300 299 299 298 297 295 293 293 293 294 296 298 299 299 299 299 299 299 299 299 298 297 295 293 293 293 294 294 295 295 296 296 296 296 297 297 297 297 297 297 297 296 296 295 295 296 296 296 296 296 296 296 296 296 296 296 296 295 294 293 292 292 291 290 289 290 291 292 292 292
318 317 316 315 314 313 311 310 308 306 304 302 302 301 300 299 299 298 296 295 294 293 292 293 295 298 299 299 299 299 299 299 299 299 299 299 298 296 294 293 293 294 295 296 296 297 297 297 297 297 297 297 297 297 297 297 296 296 295 295 296 296 297 297 297 297 296 296 296 296 296 296 296 295 294 293 292 292 291 290 289 290 291 292 292
317 316 315 314 314 313 312 310 308 305 303 301 300 300 300 300 299 298 296 295 294 293 293 294 296 298 299 300 299 299 299 299 299 299 299 300 299 296 293 293 294 295 296 297 297 297 297 297 297 297 297 296 296 296 297 297 297 296 296 296 296 297 297 297 297 297 297 296 296 296 296 296 296 296 295 294 293 292 292 291 290 289 290 292 292
315 314 313 313 313 312 311 309 307 304 301 300 300 300 300 300 300 299 297 295 294 294 294 296 298 299 299 300 300 299 299 299 299 299 299 300 299 296 294 295 296 296 296 297 298 298 298 298 297 297 297 297 296 296 297 297 297 296 296 296 297 297 297 297 297 297 297 297 296 296 296 296 296 296 296 295 294 293 292 292 291 290 290 291 292
314 313 313 313 313 312 310 308 307 304 302 300 300 301 301 301 301 299 298 296 294 294 296 297 299 299 300 300 300 299 299 300 300 300 300 300 299 295 294 296 297 297 297 298 298 298 298 298 298 298 298 297 297 297 297 297 297 296 296 296 297 297 297 297 297 297 297 297 297 297 297 296 296 296 296 296 295 294 294 293 292 291 290 290 291
314 314 314 313 312 311 310 308 307 305 303 301 301 301 301 301 301 300 299 296 295 295 297 298 299 300 300 300 300 300 300 300 300 300 300 299 297 296 296 297 298 298 298 299 299 299 299 299 299 298 298 298 298 297 297 297 297 296 296 297 297 297 297 297 297 298 297 297 297 297 297 297 296 296 296 296 296 296 295 294 294 293 292 291 290
314 314 313 312 312 311 309 308 307 305 303 302 302 302 301 301 301 301 300 297 295 296 298 299 299 300 301 300 300 300 300 299 298 298 297 296 296 296 298 298 299 299 299 299 299 299 299 299 299 299 298 298 298 297 297 297 297 297 297 297 297 297 297 298 298 298 298 297 297 297 297 297 297 296 296 296 296 296 296 296 295 294 293 292 291
313 312 312 311 311 310 309 308 307 305 304 303 302 302 302 302 301 301 300 298 296 296 298 299 300 300 301 300 300 300 300 299 298 296 295 295 296 298 299 299 299 299 299 299 299 299 299 299 299 299 298 298 298 297 297 297 297 297 297 297 297 297 298 298 298 298 298 298 297 297 297 297 297 297 296 296 296 296 296 296 296 296 295 294 292
313 312 311 311 310 310 309 308 306 305 304 303 303 302 302 301 301 300 299 298 297 296 297 298 299 300 301 301 301 300 300 299 298 297 297 297 298 299 299 299 299 299 299 299 299 299 299 299 299 299 298 298 297 297 297 297 297 297 297 297 297 297 298 298 298 298 298 298 297 298 297 297 297 297 297 297 297 296 296 296 296 296 296 295 294
312 311 310 310 310 310 309 308 306 305 304 303 303 302 302 301 301 300 299 298 297 296 296 297 298 300 301 301 300 300 299 299 299 299 298 299 299 299 299 300 300 300 299 299 299 299 299 299 299 298 298 298 297 297 297 297 297 297 297 297 298 298 298 298 298 298 298 298 298 298 298 298 298 298 297 297 297 297 297 296 296 296 297 296 296
311 310 310 310 310 310 309 307 306 305 304 303 303 302 302 301 301 300 299 299 297 296 296 296 298 300 301 300 300 300 299 299 300 300 300 299 299 299 300 300 300 300 299 299 299 299 299 299 298 298 298 298 298 298 298 298 298 298 297 297 298 298 298 298 298 298 298 298 298 298 298 298 298 298 298 298 298 298 297 297 296 296 296 296 296
311 310 310 309 309 309 308 307 306 305 304 303 302 302 301 301 301 300 300 299 298 297 296 297 298 300 301 300 300 300 300 300 300 300 300 300 300 300 300 300 299 299 299 299 299 299 299 299 299 298 298 298 298 298 298 298 298 298 298 298 298 298 298 298 298 298 298 298 298 298 298 298 298 298 299 299 299 298 298 298 297 297 296 296 296
311 310 310 309 309 309 308 307 305 304 304 303 302 302 301 301 301 300 300 300 298 297 296 297 299 300 301 300 300 300 300 300 301 301 301 301 301 300 300 300 300 300 300 299 299 299 299 299 299 299 298 298 298 298 298 298 298 298 298 298 297 297 298 298 298 298 298 298 298 298 298 298 298 298 299 299 299 299 298 298 298 298 297 297 296
311 310 309 309 309 309 308 307 305 304 303 303 302 302 301 301 301 300 300 300 298 296 296 296 298 300 300 301 301 301 301 301 301 301 301 301 300 300 300 300 300 300 300 299 299 299 299 299 299 298 298 298 298 298 298 298 298 298 298 298 297 298 298 298 298 298 298 298 298 298 298 298 298 298 298 299 299 298 298 298 298 298 298 297 297
311 310 309 309 308 308 308 307 305 304 303 302 302 302 301 301 300 300 300 299 297 296 295 296 297 299 300 301 301 301 301 301 301 301 301 300 300 300 300 300 300 300 300 299 299 299 299 299 298 298 298 298 298 298 298 298 298 298 298 298 298 298 298 298 298 298 298 298 298 298 298 298 298 298 298 298 298 298 298 298 298 298 298 298 298
310 309 309 308 307 308 307 306 305 304 303 302 302 302 301 301 300 299 298 297 296 296 296 296 296 298 300 301 301 301 302 302 302 301 301 300 300 300 300 300 300 300 299 299 299 299 299 299 298 298 298 298 298 298 298 298 298 298 298 298 298 298 298 298 298 298 298 298 298 298 298 298 298 298 298 298 298 298 298 298 298 298 299 299 298
309 309 308 307 307 307 307 306 305 304 303 302 303 302 302 301 300 298 296 296 296 296 296 296 296 297 299 300 301 301 302 302 301 301 301 301 301 300 300 300 300 300 299 299 299 299 299 298 298 298 298 298 298 298 298 298 298 298 298 298 298 298 298 298 298 298 298 298 298 298 298 298 298 298 298 298 298 298 298 299 299 299 299 299 299
308 308 308 307 306 305 305 305 304 303 302 303 303 303 302 301 300 298 296 296 296 296 296 296 296 297 299 301 301 301 301 301 301 301 301 301 301 300 300 300 300 300 300 300 300 299 298 298 298 298 298 298 298 298 298 298 298 298 298 298 298 298 298 298 298 298 298 298 298 298 298 298 298 298 298 298 298 298 298 299 299 299 299 299 299
307 307 307 306 305 305 304 304 303 302 303 303 304 303 303 302 300 297 296 296 296 297 297 298 298 299 300 301 302 302 302 301 301 301 300 300 300 300 300 301 301 300 300 300 299 299 299 299 299 299 299 299 299 299 298 298 298 298 298 298 298 298 298 298 298 298 299 298 298 298 299 298 298 298 298 298 298 299 299 299 299 299 299 299 299
Wind_Speed
20 18 18 17 16 17 19 19 20 19 16 16 16 13 9 9 8 6 10 11 10 11 10 9 9 8 8 7 7 7 6 6 7 7 7 7 7 8 9 8 8 9 9 9 10 11 11 12 13 15 15 16 16 17 18 18 19 21 21 22 24 24 26 27 26 31 33 33 35 36 37 40 40 40 42 43 43 44 44 45 47 49 51 52 51
21 20 19 18 18 20 22 21 19 18 17 17 15 11 9 9 7 9 13 12 12 12 10 10 9 8 8 7 7 7 6 5 5 6 7 7 7 8 8 8 7 8 8 8 9 10 11 12 13 14 15 15 16 17 18 19 20 21 22 23 24 24 25 27 28 31 35 36 37 38 40 40 41 42 42 44 46 47 48 49 50 52 53 53 54
22 21 20 18 19 20 21 20 19 19 18 16 13 11 10 8 7 12 14 12 12 12 10 10 9 9 8 7 7 6 5 5 5 6 6 7 7 7 7 7 7 7 8 8 9 9 10 12 13 14 15 15 17 18 18 19 20 21 22 23 24 24 24 26 28 31 35 38 39 40 41 41 42 43 43 45 47 49 51 52 53 54 55 56 53
23 22 20 20 20 21 21 20 20 19 16 15 13 11 10 8 10 14 14 12 12 11 10 10 9 9 8 8 7 6 5 5 4 5 6 6 6 6 6 6 6 7 7 7 8 9 10 12 13 13 14 15 17 18 19 20 21 22 23 24 24 24 25 25 28 30 35 38 39 40 41 43 43 44 45 47 48 50 52 52 54 54 53 52 45
24 23 22 21 21 21 20 20 19 18 16 15 13 12 11 9 12 14 13 12 11 10 10 10 10 9 8 8 7 6 6 5 4 5 6 6 6 6 6 6 6 7 8 8 8 9 10 12 12 13 14 16 17 18 20 20 21 23 23 24 24 25 26 27 29 31 34 38 40 41 42 43 44 44 46 48 51 54 51 48 51 52 46 40 36
24 23 22 21 21 20 20 20 19 17 16 15 14 13 11 10 13 14 13 12 11 10 10 10 10 9 9 9 8 7 6 5 5 5 5 6 6 6 5 6 6 7 8 8 8 9 10 11 12 13 14 16 17 19 20 21 22 23 23 23 24 26 27 29 31 33 35 37 40 42 43 44 45 46 46 47 49 52 50 47 48 45 38 34 34
25 23 21 20 20 20 20 19 18 17 16 16 14 13 12 12 14 14 13 13 11 11 11 10 10 10 9 9 8 7 7 6 5 5 5 6 6 6 5 6 6 7 8 8 8 9 10 11 12 13 14 15 17 19 20 21 22 22 22 24 25 27 29 30 32 34 36 38 39 41 43 44 44 44 46 47 45 44 46 49 47 41 35 34 34
25 22 21 21 20 19 19 18 17 17 17 16 15 14 13 15 16 15 14 13 12 12 11 10 10 10 10 10 9 8 7 6 5 5 5 5 6 6 6 6 7 7 7 7 8 8 9 10 11 12 13 15 16 18 19 21 22 21 22 24 25 27 29 31 33 34 36 38 39 40 42 43 42 42 45 47 47 46 48 49 46 42 39 35 34
24 22 21 21 20 19 18 18 17 17 18 17 16 15 15 16 16 15 14 13 13 13 12 11 10 10 10 10 9 9 8 7 6 5 5 5 6 6 6 7 6 6 6 6 7 7 8 9 10 11 12 14 15 16 18 20 21 21 22 23 25 27 29 30 32 34 36 38 39 40 41 41 42 43 45 46 46 48 52 50 44 41 41 39 35
22 23 22 21 20 19 19 19 18 19 19 17 15 14 15 16 16 15 13 13 13 13 13 13 12 11 10 10 10 9 8 7 6 6 5 5 6 6 5 6 5 5 5 5 6 6 7 8 9 10 11 13 14 15 17 19 19 20 21 22 24 26 28 29 31 33 35 37 38 39 39 39 41 43 45 46 46 48 52 51 47 45 44 43 38
21 22 21 21 21 20 20 20 20 20 19 17 15 15 16 16 15 14 13 13 13 14 14 13 12 12 11 10 10 9 8 7 7 6 6 6 5 5 5 4 4 4 3 4 4 5 7 7 8 9 11 13 14 15 17 18 19 19 19 20 21 23 26 28 30 32 34 35 37 38 37 38 41 43 45 46 47 50 51 49 49 49 45 42 40
24 23 22 22 22 21 21 21 20 20 19 16 15 15 16 17 15 13 13 13 14 15 14 13 12 12 12 11 11 10 9 8 7 6 6 6 5 5 4 4 3 3 2 2 3 5 6 6 7 9 11 12 14 15 17 18 18 19 19 19 20 21 23 25 28 30 32 34 36 37 36 37 39 42 44 46 48 51 51 49 48 44 39 37 38
25 24 23 23 23 22 21 21 21 20 19 16 16 16 17 17 17 15 14 14 15 15 14 13 13 12 12 12 11 10 9 8 7 7 6 6 6 5 4 4 3 2 1 1 2 4 4 5 6 9 10 12 14 15 17 18 18 19 19 20 21 22 22 23 25 28 30 32 34 35 34 35 38 40 41 44 48 50 51 53 50 40 34 35 38
27 25 26 26 25 23 22 22 21 21 19 18 18 16 17 18 18 16 16 16 16 15 14 13 13 13 13 13 12 11 10 9 8 7 6 6 5 5 4 3 3 2 1 0 1 2 3 4 6 8 10 12 14 15 16 17 18 19 20 21 22 23 24 25 26 27 29 30 32 33 33 33 35 37 39 41 45 48 50 53 49 38 33 36 40
30 28 29 29 27 25 24 23 22 22 22 21 19 16 18 20 18 16 16 16 15 14 13 13 14 14 14 13 12 11 10 10 9 7 7 6 5 4 4 3 3 2 1 1 0 1 3 4 6 8 10 12 14 15 16 17 18 19 21 22 23 24 25 27 28 28 29 29 30 32 32 32 32 34 37 39 42 45 47 49 46 38 34 37 40
31 30 31 30 28 27 26 25 24 24 23 22 20 17 18 20 18 17 16 16 15 15 14 14 14 14 14 14 13 12 11 10 9 7 6 6 5 4 4 3 3 3 2 2 1 1 2 4 6 8 10 12 13 14 16 17 18 20 21 23 24 24 25 27 28 28 28 28 28 29 29 30 30 32 34 37 41 45 46 47 47 40 35 39 43
34 32 32 31 30 28 26 25 24 23 23 23 21 18 19 20 18 17 17 17 17 16 15 15 15 15 15 15 13 12 11 9 8 7 6 6 6 5 5 4 4 4 3 2 1 1 2 4 6 8 10 11 13 14 16 17 19 21 22 23 24 25 26 27 28 28 28 27 26 27 27 28 30 31 33 36 41 45 47 50 48 40 37 42 44
36 35 35 33 30 27 24 24 23 22 23 24 21 19 20 21 18 16 16 16 17 16 16 17 17 16 15 14 13 12 11 10 9 8 7 7 6 6 5 6 5 4 3 2 1 1 2 4 6 8 9 10 12 14 15 17 19 21 23 24 25 26 27 28 29 30 30 30 28 27 28 29 31 33 35 38 41 45 48 50 47 38 37 43 45
37 37 36 32 28 25 24 24 24 23 24 23 20 19 21 20 18 17 16 16 17 17 17 18 18 17 16 15 14 13 12 11 10 9 8 7 7 7 7 6 6 5 4 2 1 1 3 4 6 7 8 9 11 13 15 18 20 21 23 24 25 26 28 29 31 32 32 32 32 31 31 33 34 36 38 40 44 46 47 49 47 40 39 46 49
34 36 34 30 26 25 24 24 24 24 24 23 20 20 21 21 19 18 18 18 18 18 18 18 18 18 17 16 15 13 12 11 10 9 8 7 7 7 7 6 6 5 4 3 2 2 3 4 5 6 7 9 11 13 15 18 19 21 23 24 25 26 27 28 30 32 33 34 34 35 35 36 37 39 40 42 45 47 47 48 48 45 44 47 48
30 32 31 29 27 25 24 24 24 24 24 23 21 21 22 21 20 19 20 20 20 19 19 19 18 18 17 16 14 13 12 11 10 9 8 8 7 8 7 6 6 5 4 3 2 2 2 2 3 4 6 8 10 13 15 16 18 20 22 23 23 25 26 28 29 31 32 34 35 36 37 38 38 39 40 42 44 47 49 49 49 48 47 46 47
26 28 29 28 27 25 24 24 25 24 24 23 23 23 23 22 20 20 20 21 20 20 20 20 20 19 18 16 15 14 13 11 10 9 8 8 8 7 7 6 5 4 4 3 2 1 2 1 2 3 6 8 10 12 14 15 18 19 20 22 22 23 25 27 29 30 32 33 35 36 37 39 39 39 39 41 43 46 49 51 49 48 48 46 44
26 27 28 28 27 25 24 25 26 25 25 24 25 25 25 24 21 20 21 21 21 20 20 21 21 19 18 17 16 15 13 12 11 9 9 8 7 7 6 5 4 4 3 2 1 1 1 1 2 4 5 8 10 12 14 15 17 19 20 21 22 22 24 25 27 29 31 32 34 36 37 38 39 39 38 39 42 45 49 51 51 49 49 49 47
27 27 28 28 27 25 24 25 26 25 24 25 26 26 26 25 23 22 22 22 22 22 22 22 22 20 19 18 18 16 14 12 11 10 9 8 7 6 6 5 4 3 2 1 1 1 0 1 2 4 6 8 10 11 13 15 17 19 20 21 22 22 23 25 26 28 30 32 34 35 36 37 38 38 38 38 41 46 48 51 52 51 50 51 51
28 28 28 28 26 25 25 26 26 25 25 26 27 27 27 26 25 24 24 23 22 23 23 23 23 21 20 20 18 16 14 13 11 10 9 8 7 6 6 5 4 3 2 1 1 1 1 2 3 5 6 8 9 11 13 15 17 19 20 21 22 22 23 25 26 28 29 31 33 34 35 36 36 37 37 38 41 46 48 50 53 54 52 52 53
28 28 28 28 27 27 26 27 26 25 25 26 26 27 27 27 26 25 25 24 23 24 25 25 23 22 22 21 19 17 15 14 12 11 9 8 7 6 5 5 4 3 2 2 2 2 2 3 4 6 7 8 9 11 13 14 16 18 19 20 21 22 23 24 26 27 29 30 32 34 35 35 36 37 38 39 41 44 46 50 54 55 54 54 54
27 28 28 28 28 27 27 26 25 25 26 26 26 27 27 26 26 26 27 26 25 25 25 25 25 25 24 22 20 18 16 15 13 12 10 9 8 6 5 4 3 3 3 3 3 4 4 4 5 7 7 8 9 10 12 14 15 17 18 19 20 21 22 24 26 28 30 31 32 33 34 35 36 37 38 39 40 41 44 48 51 54 56 55 54
26 25 26 27 27 27 26 26 25 26 27 28 28 28 29 28 27 27 26 26 26 26 27 27 27 26 24 22 20 19 17 16 14 12 10 9 8 6 5 4 3 3 4 4 5 5 5 5 6 7 8 8 9 10 12 13 15 15 15 16 18 20 22 25 27 29 30 31 32 33 33 34 36 37 39 40 39 40 43 45 48 53 54 54 54
25 25 26 27 27 27 27 26 26 27 28 29 29 28 28 27 26 25 24 24 23 24 25 26 25 25 23 22 21 19 17 14 11 10 9 8 7 6 5 4 3 4 4 5 6 6 6 6 7 8 8 8 9 10 11 13 13 13 13 14 17 20 22 25 28 29 31 32 33 34 34 35 36 37 38 39 39 39 41 43 46 51 52 52 55
27 27 27 27 27 27 27 27 26 27 28 29 29 27 26 24 23 22 21 21 21 22 22 22 22 22 22 20 19 17 14 11 9 9 9 8 7 6 5 5 5 5 5 5 6 6 6 6 7 8 8 8 9 10 11 13 13 11 11 13 15 18 21 24 27 29 31 33 34 35 35 35 36 37 37 38 39 39 40 41 43 48 50 50 53
27 28 27 26 26 26 27 27 27 27 28 29 28 28 27 25 23 22 20 19 20 21 20 20 20 21 20 18 16 15 13 10 9 9 7 7 6 6 5 5 6 6 6 6 6 6 6 6 7 7 7 7 8 10 11 12 12 11 10 11 14 17 20 23 25 27 30 33 34 35 36 36 36 36 37 38 39 39 40 41 41 44 47 47 50
26 26 26 25 25 26 28 27 26 27 28 28 28 27 27 27 26 24 21 20 20 20 19 20 21 21 20 18 17 15 14 11 10 9 8 7 6 6 6 7 7 7 6 6 6 5 5 5 5 6 7 7 8 10 11 12 12 11 10 11 13 16 18 21 23 25 28 30 32 35 37 37 36 36 36 38 39 39 40 41 41 42 44 45 48
23 23 25 26 27 28 28 26 25 26 28 28 28 28 27 27 26 25 24 23 22 22 22 22 23 22 20 20 19 17 15 13 12 11 11 9 8 7 7 8 8 8 7 6 5 4 4 4 5 6 7 8 10 11 11 12 11 11 10 10 12 15 17 19 22 23 25 28 30 32 35 37 38 37 36 37 38 38 39 40 39 40 42 43 46
21 21 23 25 26 26 26 25 25 26 27 28 28 27 27 26 25 25 26 26 25 26 26 26 25 23 21 21 20 17 16 14 14 13 13 11 9 8 9 9 9 8 7 6 4 3 3 4 5 7 8 10 12 12 12 12 11 10 9 10 12 14 16 18 21 23 24 26 27 29 32 34 37 38 37 37 37 38 39 39 38 38 40 41 42
20 21 22 23 23 23 24 23 23 25 26 26 26 26 25 25 24 25 26 27 28 28 28 27 25 24 23 21 19 17 16 15 14 14 14 12 11 10 10 10 9 8 7 6 5 4 4 5 6 8 9 11 13 13 12 12 11 10 9 10 12 14 16 18 20 22 23 24 26 27 29 31 34 36 37 37 37 37 38 38 38 37 37 39 40
21 22 22 22 21 21 21 20 21 23 24 24 24 24 24 23 23 24 25 26 27 27 27 26 25 24 23 21 18 17 16 15 14 15 14 13 13 12 11 10 9 8 8 7 5 5 6 7 8 9 10 12 13 14 13 12 11 10 10 11 12 14 16 18 20 21 22 24 25 26 27 29 30 32 34 35 36 37 37 37 38 37 36 36 38
21 21 20 20 19 20 20 19 18 20 21 22 23 23 23 23 23 23 24 25 27 27 26 26 25 24 23 21 19 17 16 15 15 15 16 15 14 13 12 11 10 10 9 8 7 8 8 9 10 11 12 13 14 14 13 12 11 11 10 11 12 14 16 18 19 20 21 23 24 25 26 27 28 30 32 33 34 35 36 36 37 37 36 35 36
18 17 17 19 20 20 19 18 17 19 21 22 23 23 23 23 23 23 23 24 26 27 27 26 26 25 23 20 18 17 16 16 16 17 17 17 15 13 11 11 10 10 10 9 9 10 10 10 11 12 13 14 15 15 13 12 12 11 11 11 12 14 16 17 18 20 21 22 23 24 25 26 27 28 29 30 31 33 34 35 36 37 37 36 35
17 16 17 18 18 18 17 18 18 20 22 24 24 24 23 23 24 24 23 23 26 28 27 26 26 25 22 19 18 17 16 16 16 17 17 17 15 13 12 11 10 10 10 9 10 10 11 11 12 13 14 15 16 15 13 13 12 12 12 12 13 14 15 16 18 19 20 21 22 23 24 25 26 26 27 28 29 30 31 33 35 36 37 36 34
18 18 18 17 17 17 17 17 18 19 21 22 23 23 23 23 23 23 22 22 25 27 27 26 27 25 22 20 18 17 16 15 14 14 15 15 14 13 12 11 10 10 10 10 10 11 11 12 13 14 15 16 15 14 14 13 13 12 12 13 14 14 15 15 16 18 19 19 20 21 21 22 24 24 25 25 27 28 28 30 32 34 35 36 35
18 18 18 17 17 17 16 17 17 17 18 19 21 21 22 22 21 21 21 22 24 26 26 26 27 25 22 19 18 17 16 14 13 13 13 13 13 13 13 12 12 12 12 12 11 12 12 13 14 15 16 15 14 13 13 13 13 13 13 14 14 14 14 15 16 17 18 18 19 19 19 20 21 23 23 24 25 26 26 27 29 30 32 34 35
19 18 18 18 18 18 17 16 16 16 17 18 20 21 22 22 22 21 21 22 24 25 26 26 27 25 21 19 18 17 16 15 15 14 14 14 14 14 14 14 14 13 13 13 13 13 14 14 15 15 15 14 12 12 12 13 13 14 14 14 14 15 15 15 16 17 17 18 18 18 19 18 19 21 22 22 23 24 25 26 26 27 29 31 33
19 18 18 19 19 19 17 16 16 17 18 19 20 20 21 22 22 22 21 21 23 24 25 26 26 24 21 18 18 17 17 17 16 16 15 15 16 16 16 16 16 15 15 14 14 14 14 14 14 14 13 13 12 13 13 13 13 14 15 15 16 15 15 16 16 17 17 17 17 18 18 18 18 19 20 21 22 23 24 25 25 26 27 28 30
18 18 18 18 19 19 19 18 17 17 17 17 18 19 20 21 21 21 21 21 22 23 24 25 25 23 20 18 18 18 17 17 17 17 17 17 17 17 17 16 16 15 15 15 15 15 15 15 15 15 15 16 16 17 16 16 16 16 16 16 16 16 16 16 16 16 16 16 17 18 18 18 18 18 19 20 21 21 22 23 24 24 25 25 26
18 18 19 19 20 21 21 21 19 17 16 16 18 19 21 21 20 20 20 21 22 23 24 24 24 22 20 18 18 18 18 17 17 17 18 18 18 17 16 16 15 16 16 16 16 16 17 17 18 18 18 19 19 19 19 18 18 17 17 17 17 16 16 16 16 17 17 17 17 18 18 18 18 19 19 21 22 21 22 22 23 23 24 24 24
17 17 18 20 21 22 22 22 21 20 18 18 18 19 21 22 21 20 21 22 23 23 24 24 24 22 20 18 19 19 18 17 17 17 17 18 18 18 17 17 17 17 17 17 17 18 18 18 19 19 18 18 18 18 18 18 18 18 17 17 17 16 16 17 18 18 18 18 18 19 19 19 19 20 20 20 22 23 23 23 22 22 23 23 23
17 16 17 19 21 22 22 22 23 22 20 19 18 18 20 21 21 21 22 24 24 24 25 24 23 22 20 19 19 19 18 17 17 17 16 17 17 17 18 19 19 19 19 19 19 18 18 18 18 18 18 18 18 18 17 17 17 17 17 17 17 17 18 19 20 20 19 19 20 20 20 20 21 21 20 20 21 23 23 21 20 20 21 22 22
17 17 17 18 21 22 23 22 23 23 22 20 19 19 21 22 22 23 24 25 26 26 25 24 23 22 21 19 19 18 18 18 18 17 17 17 17 17 18 18 19 20 20 20 19 19 18 18 18 18 18 18 18 19 19 18 18 18 18 18 18 19 19 20 20 20 20 21 21 21 21 21 21 21 20 20 21 22 21 20 18 18 19 20 21
16 16 17 18 20 22 22 21 22 23 23 22 22 22 23 24 24 24 25 26 27 26 25 24 23 22 20 18 17 17 18 18 18 18 17 17 17 17 17 17 18 18 19 19 19 19 19 19 19 19 20 20 20 20 20 20 20 19 19 19 19 20 20 20 21 21 22 22 22 21 21 21 21 21 20 20 20 20 20 19 18 18 18 18 19
15 15 16 18 19 20 21 21 22 24 25 24 23 23 25 26 26 25 25 26 26 25 23 22 21 20 19 18 17 16 16 17 17 18 18 19 19 19 19 19 19 19 19 19 20 20 20 20 20 20 20 20 19 19 19 19 19 19 19 19 20 20 20 20 20 21 21 21 21 21 21 21 21 21 21 20 20 20 21 20 20 19 19 18 18
14 15 16 16 17 18 20 22 24 26 26 23 20 21 25 28 27 26 26 26 24 22 21 19 18 18 18 18 17 17 16 17 17 18 19 19 20 21 22 22 22 22 21 21 20 19 20 20 20 20 20 19 19 19 19 19 19 20 20 20 19 20 20 20 20 20 19 20 20 20 21 21 21 21 21 22 22 22 22 22 22 22 21 20 20
Wind_Direction
202 202 202 200 206 213 214 211 213 217 226 241 252 257 255 258 266 218 169 163 162 160 161 156 150 146 137 131 120 109 101 90 86 81 75 73 72 76 79 78 71 66 62 58 55 51 46 45 43 43 42 40 37 33 29 27 24 23 21 17 16 9 4 1 349 343 349 353 352 353 354 353 353 351 348 345 344 343 343 343 343 342 341 340 338
201 201 201 199 204 212 213 212 215 224 236 244 248 250 251 256 240 185 169 167 165 162 161 155 149 145 139 133 126 121 113 103 95 86 82 80 79 83 85 82 75 69 66 62 57 53 50 48 45 44 42 39 37 34 29 27 24 22 20 17 16 13 6 360 352 343 343 349 353 353 353 352 351 351 349 346 345 344 344 344 343 342 341 340 338
200 199 199 202 207 212 214 218 227 235 239 240 242 245 248 246 205 176 170 169 167 163 159 154 150 148 145 141 136 132 126 118 106 94 90 86 84 89 90 86 80 74 73 69 61 58 54 50 46 43 42 39 36 34 30 26 23 21 19 16 13 10 6 359 353 346 342 347 353 352 351 351 351 351 349 347 346 345 344 343 342 341 339 339 336
202 200 200 206 210 213 218 225 233 236 235 234 237 238 238 228 188 171 169 171 171 166 162 158 155 153 150 147 143 139 136 130 117 105 101 96 94 95 93 90 87 84 81 74 66 59 52 49 46 44 42 39 35 33 30 26 23 20 17 14 10 5 2 359 354 350 346 347 351 352 351 351 351 351 350 348 346 344 343 342 341 338 336 335 332
202 202 204 209 212 217 223 228 230 230 228 229 229 229 230 212 179 170 170 173 172 171 170 164 159 158 155 151 148 146 147 140 127 118 112 109 106 101 97 96 95 93 84 73 64 56 49 46 45 44 41 38 34 30 28 26 22 19 15 10 6 2 360 358 355 352 350 349 350 351 351 351 351 352 352 349 346 344 343 340 337 335 332 328 323
201 204 206 209 215 220 225 226 225 224 224 222 220 223 223 198 175 171 172 173 175 174 173 168 163 161 158 156 155 155 156 151 139 132 124 118 113 106 101 102 100 92 80 70 61 51 47 44 42 41 38 34 31 26 24 24 21 17 13 8 4 0 359 357 355 353 352 351 351 350 350 351 351 352 352 349 345 343 340 336 334 333 328 324 320
202 205 208 213 220 223 224 224 223 221 219 214 215 221 213 187 175 175 174 175 176 175 173 170 169 167 163 162 161 161 163 160 150 143 134 124 118 112 109 106 100 90 77 68 60 50 45 43 39 38 34 30 27 22 20 21 20 16 10 6 3 359 358 356 355 354 353 352 351 350 349 351 351 350 350 348 344 340 338 335 333 330 326 324 321
204 206 211 219 222 222 223 222 219 217 212 209 214 216 199 181 176 178 180 178 175 175 174 174 175 174 169 165 165 168 169 168 160 150 140 129 124 122 116 108 99 90 78 66 58 49 43 41 37 34 31 27 22 18 17 17 16 14 10 6 2 359 357 356 355 354 353 351 351 350 349 350 350 348 347 348 344 341 341 338 332 328 327 324 320
205 210 217 221 221 222 222 219 214 211 206 207 213 207 191 183 181 180 181 181 177 175 176 177 179 178 173 168 169 173 175 173 166 154 145 137 134 132 123 111 102 90 78 64 56 48 40 37 35 30 29 25 19 16 16 15 12 10 8 5 1 358 355 355 355 354 352 352 350 350 349 349 348 347 347 347 344 341 342 340 332 327 325 322 321
207 215 220 221 221 220 219 215 210 206 204 207 210 201 190 189 188 183 182 181 179 179 179 178 178 176 174 172 172 177 180 177 170 160 154 149 143 140 131 119 110 97 80 62 50 44 38 33 30 27 24 21 16 15 16 15 12 10 9 6 1 357 353 353 355 354 352 352 350 350 349 347 347 347 347 346 344 342 343 342 337 332 327 324 325
212 219 221 221 221 218 215 210 205 202 203 204 201 195 193 194 193 189 184 182 182 183 182 180 179 175 172 173 176 181 183 179 175 170 164 158 152 147 142 133 121 107 89 65 46 39 35 29 25 22 19 15 12 13 14 13 11 10 10 8 3 357 353 352 353 354 353 351 350 350 349 345 345 348 347 345 344 345 345 342 338 334 331 328 328
210 220 222 221 220 217 212 206 202 201 200 198 194 192 192 192 193 192 188 185 185 184 182 181 179 174 171 174 179 183 186 182 179 178 172 166 163 156 151 146 134 116 98 66 41 35 31 25 23 19 15 10 9 12 12 9 9 9 7 7 6 1 356 354 353 353 353 351 350 350 348 344 344 347 348 346 345 346 345 343 339 333 329 329 327
206 219 222 219 219 218 212 204 202 201 197 191 188 189 191 192 192 190 188 188 187 184 182 179 176 175 173 176 181 184 186 185 183 184 179 172 169 164 161 157 150 143 125 54 30 31 26 21 24 19 9 7 9 11 9 6 7 7 5 5 6 3 359 357 355 355 354 352 350 349 348 346 344 345 348 347 347 348 345 344 342 335 327 327 327
202 215 221 219 217 216 212 205 203 200 195 189 186 190 197 196 192 189 189 191 187 182 182 178 175 175 174 176 182 184 185 187 188 187 182 177 174 168 165 161 159 173 181 60 12 19 19 18 24 17 6 7 10 8 6 5 5 5 4 5 5 3 360 359 358 357 356 354 351 348 348 347 344 344 346 348 350 349 346 346 345 335 324 326 329
204 212 220 219 215 213 211 206 201 199 196 190 189 197 201 196 192 191 191 191 187 181 180 178 176 176 176 177 179 182 184 186 188 187 183 181 179 173 172 172 170 186 196 186 337 2 13 17 20 14 7 7 8 5 5 5 4 3 3 5 4 3 1 360 359 358 356 354 352 349 348 348 346 346 346 349 352 351 349 349 346 333 323 329 334
212 214 218 218 215 213 210 203 199 199 196 192 195 203 199 192 193 194 191 189 184 179 179 179 178 178 178 177 177 180 184 185 185 187 185 184 185 185 187 189 190 197 198 188 208 355 15 18 18 14 9 6 3 3 4 4 3 2 2 4 4 4 3 1 359 358 356 354 353 351 349 348 348 348 349 352 355 354 353 353 349 338 331 335 339
219 219 219 218 216 214 210 205 202 202 198 197 201 203 196 192 193 193 191 188 182 178 179 179 178 179 179 177 176 179 182 184 185 186 187 189 193 196 196 198 201 202 191 182 185 14 16 19 20 15 10 6 3 3 4 3 3 3 2 2 2 2 2 1 359 358 356 355 355 354 352 352 352 354 355 357 359 359 358 356 352 345 339 340 340
221 222 221 219 215 212 211 209 209 207 205 204 204 200 193 193 193 191 190 188 182 180 181 179 177 178 179 178 179 182 183 186 188 188 190 195 198 199 199 199 198 192 177 170 159 44 16 17 21 17 12 9 6 4 3 3 4 3 1 1 1 0 359 357 357 356 355 355 356 357 358 357 358 360 1 2 3 4 2 359 355 349 342 342 342
224 224 222 218 213 211 210 209 209 210 209 208 205 198 194 193 191 187 186 186 184 183 182 181 180 178 178 180 183 185 185 188 192 192 192 195 196 194 193 190 185 173 161 155 130 52 24 20 23 18 13 12 9 5 3 3 4 3 1 360 359 358 356 354 354 353 352 353 356 359 2 2 2 3 4 5 6 6 5 3 1 355 347 346 347
227 226 221 215 213 212 209 207 208 209 209 208 204 198 195 194 191 186 183 183 186 185 183 183 183 180 179 183 186 187 187 190 193 194 192 192 190 187 185 178 168 158 149 142 120 70 40 28 24 18 14 12 8 5 4 4 3 3 1 359 356 354 353 353 353 352 351 353 356 0 3 4 4 5 5 6 7 6 5 6 6 4 356 351 351
227 224 219 214 213 212 208 207 207 207 208 208 203 196 195 196 193 188 184 182 183 185 185 184 185 184 183 184 186 187 187 188 189 189 189 188 184 182 179 170 159 149 138 131 117 92 71 49 28 15 12 8 4 5 5 5 3 2 0 358 354 352 351 352 352 353 353 354 357 1 3 4 5 5 5 6 6 6 7 7 8 9 6 358 354
223 221 217 214 212 209 205 205 206 204 206 206 202 196 196 198 196 191 187 183 182 185 187 186 185 185 183 184 184 184 183 183 184 185 184 181 179 178 174 165 156 144 134 131 127 114 108 87 31 8 4 3 2 4 6 6 4 1 358 356 355 353 352 352 353 354 355 356 358 0 3 4 4 5 6 6 6 6 8 8 8 11 12 8 2
219 218 215 211 208 205 203 204 204 204 204 203 200 198 197 197 197 195 191 187 184 186 189 188 185 183 184 184 183 182 182 182 183 182 178 175 174 171 164 156 149 144 140 148 167 162 135 60 7 357 357 359 2 6 8 8 6 2 358 356 355 355 355 355 355 356 357 358 358 360 2 3 3 4 6 6 6 8 10 9 8 10 14 14 11
217 215 212 208 203 201 202 204 204 204 203 200 199 199 199 198 197 197 196 194 190 190 192 191 187 185 186 185 183 183 183 184 185 182 174 171 169 163 158 151 147 145 147 175 211 224 263 341 351 350 353 358 2 8 11 10 6 2 358 355 355 357 358 357 358 358 359 359 359 359 2 2 2 4 5 6 7 9 10 9 9 11 14 16 15
214 212 210 206 202 200 201 202 204 204 202 199 198 199 201 200 199 199 199 198 196 195 195 195 192 190 190 188 187 187 187 187 188 183 175 172 168 163 159 154 149 148 154 197 236 263 306 349 360 356 354 355 360 6 10 9 6 2 358 355 356 359 0 360 360 360 360 360 359 359 1 1 1 2 5 7 9 10 9 9 10 11 14 17 18
213 210 207 203 200 199 199 201 203 203 201 200 201 202 202 202 202 202 202 201 201 201 200 199 197 195 193 191 191 191 191 192 190 184 178 176 174 171 167 161 156 163 188 232 261 285 313 348 1 359 355 353 356 2 6 6 4 2 360 359 360 2 3 2 1 1 0 0 360 359 360 1 0 1 5 9 11 10 9 10 10 10 13 16 16
211 207 205 202 199 199 200 201 202 202 200 202 204 205 205 206 207 207 205 203 203 203 204 203 201 197 194 192 193 195 196 195 192 187 183 183 182 181 178 172 174 195 227 256 274 289 309 337 350 351 353 355 355 357 359 1 3 3 3 4 6 8 9 8 6 5 3 1 360 359 360 1 1 1 4 9 10 9 10 11 10 11 14 15 13
209 205 203 201 199 200 200 201 202 201 201 203 205 205 205 208 210 212 211 209 205 203 204 205 204 200 196 194 196 199 200 200 198 192 188 190 192 191 187 186 199 225 248 267 279 290 307 325 333 337 346 354 354 352 352 355 1 6 8 12 15 16 16 15 13 11 6 3 1 0 0 2 3 2 3 7 9 9 10 11 11 12 15 15 13
208 205 202 200 200 200 200 203 204 203 202 204 206 205 206 208 211 214 215 215 213 210 209 209 206 202 198 198 201 203 202 200 196 194 198 204 205 202 200 205 223 244 260 275 280 288 300 307 312 319 330 343 351 351 348 351 358 8 15 17 19 20 19 18 16 14 11 7 5 3 2 2 4 3 2 4 8 10 11 11 11 13 15 15 14
207 205 203 201 201 201 202 204 205 204 204 204 204 204 206 209 213 215 216 218 218 217 216 216 210 203 199 201 205 205 198 189 187 195 206 214 215 213 212 219 235 250 264 278 281 284 291 292 297 305 312 329 343 346 345 346 352 4 15 19 18 16 15 15 15 13 13 12 9 6 4 3 4 4 3 3 6 10 12 12 11 13 15 15 15
208 204 203 202 203 203 204 204 203 203 204 204 203 202 203 206 210 214 217 219 217 215 216 215 209 203 202 204 205 200 191 187 193 204 214 221 223 226 227 231 243 253 263 276 281 284 288 289 295 302 304 316 331 336 338 342 344 351 3 11 12 10 8 9 10 9 10 13 12 10 8 6 4 4 3 3 5 8 11 13 12 12 14 16 16
210 205 203 203 204 206 206 205 202 201 202 203 203 203 203 203 205 207 209 211 212 212 212 208 202 200 202 203 202 198 195 197 205 214 225 232 235 239 241 241 248 256 263 273 276 279 284 289 295 302 302 309 320 325 330 335 336 338 345 353 0 3 2 2 4 4 6 9 10 10 10 8 7 6 5 4 5 7 10 13 13 12 12 14 17
210 207 205 203 203 206 206 204 203 202 201 201 202 203 204 205 204 203 202 202 204 205 204 202 200 199 199 199 200 200 201 205 211 219 229 237 241 247 248 246 251 257 258 261 261 261 274 288 299 307 306 308 313 316 320 325 326 326 331 337 348 355 356 356 358 0 2 4 6 7 8 8 8 8 7 5 5 6 9 12 13 12 11 12 15
209 210 209 205 203 204 205 205 205 204 202 201 201 203 205 206 206 204 201 199 199 199 198 199 200 200 200 201 202 202 204 209 216 223 232 239 246 251 248 245 248 252 247 241 239 242 262 285 301 309 308 307 308 309 311 316 316 314 319 329 338 347 351 351 353 355 356 358 1 3 4 5 6 8 8 7 6 6 9 11 12 12 11 11 13
208 210 211 208 205 205 205 205 206 204 201 200 201 203 204 205 206 206 205 202 201 199 199 199 201 200 201 203 205 206 209 213 218 225 234 242 250 252 245 241 244 243 231 225 228 243 266 286 300 308 307 305 306 305 304 306 307 304 309 322 332 340 344 345 347 349 351 352 355 357 360 2 3 5 7 8 8 7 7 10 12 13 12 10 12
207 208 209 209 208 208 208 207 206 204 202 201 202 203 205 205 206 207 208 209 207 203 201 201 201 200 202 205 207 209 212 217 223 231 238 245 252 250 241 237 238 231 223 228 242 256 271 286 295 301 303 302 303 302 297 296 297 296 301 314 325 333 337 340 342 345 346 348 350 351 354 357 358 0 4 8 10 10 8 7 10 14 14 12 12
205 205 206 206 207 208 208 208 207 205 202 202 204 205 206 208 209 209 210 211 209 205 202 201 201 201 204 207 208 210 215 223 230 236 241 247 250 247 237 233 232 227 227 239 255 265 276 286 289 292 294 295 297 297 291 286 286 288 294 307 318 327 333 336 339 341 343 345 347 347 349 352 353 355 359 4 8 11 11 9 9 11 14 15 13
206 205 205 204 203 203 204 206 208 206 203 204 206 208 209 211 212 212 213 213 209 205 203 202 203 204 206 208 210 214 221 229 234 239 244 246 245 241 235 232 232 232 236 246 258 267 277 282 282 285 286 287 290 290 283 277 278 281 289 301 312 321 328 333 337 341 343 344 346 346 346 347 349 351 354 358 3 8 11 12 10 9 12 15 15
209 208 207 206 204 203 203 204 205 204 205 207 209 210 212 214 215 215 217 215 210 206 204 204 205 206 208 209 212 216 222 229 235 240 244 243 239 234 232 232 235 240 245 251 258 266 274 277 279 282 282 282 286 284 275 272 274 276 284 297 307 316 324 330 336 342 345 345 345 345 345 345 346 347 349 353 357 2 7 11 12 11 10 13 14
210 208 205 204 205 206 207 206 205 205 207 210 212 213 215 217 218 218 219 218 213 208 207 207 208 208 209 210 213 217 224 231 238 242 242 238 234 232 231 234 242 250 253 254 257 264 273 278 280 280 279 281 284 280 272 269 271 275 282 294 303 310 318 325 331 337 342 343 342 342 343 344 344 346 348 349 351 355 360 6 10 12 11 10 12
213 209 205 204 205 207 208 208 206 206 208 211 213 214 215 217 218 218 219 217 213 210 210 212 211 211 212 213 214 219 226 232 237 239 237 234 234 236 238 242 249 255 256 256 261 269 275 278 278 277 277 279 281 278 271 269 271 275 282 289 297 304 311 318 326 331 335 337 336 335 337 341 342 344 347 349 349 351 354 358 4 8 10 10 10
221 215 209 207 208 208 208 206 205 207 210 213 215 216 216 217 217 216 216 214 210 208 210 212 212 211 212 214 215 219 225 230 233 234 234 235 238 241 244 248 252 256 257 260 266 272 273 274 274 274 274 275 277 277 275 272 272 276 280 285 292 299 304 311 319 325 329 331 331 330 332 337 340 344 347 349 350 351 351 352 355 1 5 8 9
230 224 218 215 215 213 209 207 207 209 212 215 216 218 219 220 220 220 220 219 214 211 210 210 210 210 211 212 215 220 225 228 231 235 237 240 243 247 251 254 256 256 258 262 267 269 268 268 269 270 269 270 273 277 280 279 277 277 279 283 288 294 299 306 313 319 323 325 326 326 329 333 338 343 346 347 349 351 350 350 351 353 357 2 6
238 232 225 222 222 220 215 211 210 213 214 215 217 219 219 220 221 223 224 223 219 215 212 210 209 210 212 214 216 221 225 228 233 239 242 245 248 253 256 258 257 256 258 262 264 264 263 264 266 267 267 268 272 275 277 279 279 279 279 282 285 288 294 302 309 313 316 318 320 322 325 329 334 339 342 343 344 346 348 348 348 349 351 355 359
237 232 225 220 221 222 219 214 211 211 212 214 216 217 218 218 219 221 223 223 220 216 212 209 209 212 215 217 218 222 226 232 238 243 246 248 251 254 255 257 257 257 260 262 263 263 266 268 268 269 269 270 272 274 274 276 278 279 278 279 281 285 292 299 305 307 308 310 312 315 318 321 327 332 335 336 336 338 341 344 345 345 346 349 352
234 231 225 221 219 220 219 215 211 209 210 212 213 216 217 217 218 220 221 221 219 214 211 210 211 215 217 218 219 223 229 235 242 245 248 251 254 255 256 258 260 260 261 262 263 265 269 270 269 268 268 269 271 273 274 276 278 278 277 277 279 283 289 295 299 302 303 303 304 307 309 312 317 322 326 329 329 331 335 337 338 340 341 343 346
231 228 225 221 219 219 219 217 213 210 209 210 213 215 215 214 217 221 222 218 214 212 210 211 214 218 219 218 220 225 232 239 244 247 249 253 256 258 259 260 261 261 260 262 264 266 268 268 267 265 265 267 270 272 274 275 276 276 276 277 278 283 289 291 294 296 297 296 297 299 301 304 308 313 318 322 323 326 332 334 333 334 336 338 340
230 228 225 220 218 216 215 216 217 215 211 210 213 214 212 211 216 221 221 215 212 210 209 212 218 222 221 221 225 232 239 243 246 249 251 254 258 260 261 261 261 259 259 259 261 264 266 265 263 262 264 267 270 271 272 273 273 274 276 279 281 284 286 285 287 289 290 290 293 295 297 300 303 307 311 313 315 321 328 331 330 330 331 333 335
228 228 225 223 221 215 210 211 216 215 212 214 220 220 215 212 215 219 220 216 212 209 210 217 225 227 226 227 233 240 243 246 249 251 253 256 259 262 264 264 263 261 260 260 262 263 262 260 261 263 266 269 270 270 271 272 273 274 277 279 280 281 281 281 283 286 287 288 290 293 294 297 300 304 307 308 309 315 323 326 325 324 324 325 328
222 223 222 224 225 218 212 213 216 213 213 220 229 228 222 217 215 216 218 217 214 213 218 225 230 229 228 232 237 241 244 248 251 254 256 259 261 263 266 267 266 265 265 265 265 263 260 259 261 264 266 267 269 269 270 271 272 273 275 276 277 278 281 282 284 286 286 286 287 289 291 294 296 299 302 304 306 310 316 319 319 317 316 316 318
217 219 221 223 223 221 221 221 218 213 215 224 234 236 230 223 216 213 216 218 218 219 224 226 226 227 231 235 239 243 247 252 255 257 259 261 262 263 264 264 264 264 265 265 263 260 258 259 261 263 264 265 268 269 271 272 272 273 274 275 276 277 280 281 282 284 285 285 286 287 289 291 293 294 297 300 302 305 308 311 313 312 310 309 310